Starlink 30708

operational
NORAD ID: 57944 Int'l Des: 2023-148 Owner: SPXS Country: US Constellation: starlink
LEOCIRCULAR

Starlink 30708について

説明を読み込み中...

リアルタイム位置

3D地球を読み込み中...

次回通過

高度履歴

Altitude vs Time

uPlot chart will show altitude changes over time

軌道要素

1 57944U 23148K 25304.17662382 .00001942 00000-0 77681-4 0 9995
2 57944 53.1610 265.8355 0001476 125.3894 234.7245 15.30205638118595
Epoch: Oct 31, 2025 • Age: 38 hours

現在のステータス

高度 475.8 km
速度 7.63 km/s
衛星直下点 16.85°N, 38.97°W
打ち上げ日 Sep 25, 2023
運用期間 2.1 years
タイプ internet

技術仕様

分類 Payload
質量 730.00 kg
乾燥質量 700.00 kg
総質量 730.00 kg
長さ 0.30 m
直径 4.10 m
スパン 29.00 m
形状 Box + pan
製造者 SPXS
バスタイプ Starlink V2M
フェーズステータス In Orbit
所有者/国 SPXS/US

大規模コンステレーション

Loading constellations...